• In Österreich
  • Länderverzeichnis
  • Für 7 Tage
  • Wassertemperatur
  • Satellitenkarten
  • Wetterkarte
  • News
  • Widgets
  • user-avatar
    Anmelden

    Stündliche Wetter Kazaryns'ke

    Heute, 20 September, Donnerstag

    Zeit Temperatur Niederschläge Wind Luftdruck Luftfeuchtigkeit
    00:00 +21°C° 0 mm 1 m/S 757 mmHg 51%
    01:00 +20°C° 0 mm 1 m/S 757 mmHg 52%
    02:00 +20°C° 0 mm 1 m/S 757 mmHg 53%
    03:00 +19°C° 0 mm 1 m/S 757 mmHg 54%
    04:00 +19°C° 0 mm 1 m/S 757 mmHg 55%
    05:00 +19°C° 0 mm 1 m/S 757 mmHg 56%
    06:00 +20°C° 0 mm 1 m/S 757 mmHg 53%
    07:00 +21°C° 0 mm 1 m/S 757 mmHg 49%
    08:00 +23°C° 0 mm 1 m/S 758 mmHg 46%
    09:00 +25°C° 0 mm 1 m/S 757 mmHg 42%
    10:00 +26°C° 0 mm 1 m/S 757 mmHg 37%
    11:00 +28°C° 0 mm 1 m/S 757 mmHg 33%
    12:00 +29°C° 0 mm 1 m/S 757 mmHg 31%
    13:00 +29°C° 0 mm 1 m/S 757 mmHg 30%
    14:00 +30°C° 0 mm 1 m/S 757 mmHg 28%
    15:00 +29°C° 0 mm 1 m/S 756 mmHg 29%
    16:00 +29°C° 0 mm 1 m/S 756 mmHg 31%
    17:00 +29°C° 0 mm 1 m/S 756 mmHg 33%
    18:00 +27°C° 0 mm 1 m/S 756 mmHg 35%
    19:00 +25°C° 0 mm 1 m/S 756 mmHg 38%
    20:00 +24°C° 0 mm 1 m/S 756 mmHg 40%
    21:00 +23°C° 0 mm 1 m/S 756 mmHg 42%
    22:00 +23°C° 0 mm 1 m/S 756 mmHg 44%
    23:00 +22°C° 0 mm 1 m/S 756 mmHg 46%

    Morgen, 21 September, Freitag

    Zeit Temperatur Niederschläge Wind Luftdruck Luftfeuchtigkeit
    00:00 +21°C° 0 mm 1 m/S 756 mmHg 48%
    01:00 +21°C° 0 mm 1 m/S 756 mmHg 49%
    02:00 +21°C° 0 mm 1 m/S 756 mmHg 51%
    03:00 +20°C° 0 mm 1 m/S 756 mmHg 53%
    04:00 +20°C° 0 mm 1 m/S 756 mmHg 55%
    05:00 +19°C° 0 mm 1 m/S 756 mmHg 56%
    06:00 +21°C° 0 mm 1 m/S 756 mmHg 54%
    07:00 +22°C° 0 mm 1 m/S 756 mmHg 51%
    08:00 +24°C° 0 mm 1 m/S 756 mmHg 48%
    09:00 +25°C° 0 mm 1 m/S 756 mmHg 43%
    10:00 +27°C° 0 mm 1 m/S 756 mmHg 39%
    11:00 +29°C° 0 mm 1 m/S 756 mmHg 35%
    12:00 +29°C° 0 mm 1 m/S 756 mmHg 32%
    13:00 +30°C° 0 mm 1 m/S 756 mmHg 30%
    14:00 +30°C° 0 mm 1 m/S 755 mmHg 28%
    15:00 +30°C° 0 mm 1 m/S 755 mmHg 30%
    16:00 +29°C° 0 mm 1 m/S 755 mmHg 31%
    17:00 +29°C° 0 mm 1 m/S 755 mmHg 33%
    18:00 +27°C° 0 mm 1 m/S 755 mmHg 35%
    19:00 +26°C° 0 mm 1 m/S 755 mmHg 37%
    20:00 +24°C° 0 mm 1 m/S 755 mmHg 40%
    21:00 +24°C° 0 mm 1 m/S 755 mmHg 41%
    22:00 +23°C° 0 mm 1 m/S 755 mmHg 43%
    23:00 +23°C° 0 mm 1 m/S 755 mmHg 45%

    übermorgen, 22 September, Samstag

    Zeit Temperatur Niederschläge Wind Luftdruck Luftfeuchtigkeit
    00:00 +22°C° 0 mm 1 m/S 755 mmHg 46%
    01:00 +22°C° 0 mm 1 m/S 755 mmHg 48%
    02:00 +19°C° 0 mm 0 m/S 755 mmHg 49%
    03:00 +19°C° 0 mm 0 m/S 755 mmHg 50%
    04:00 +19°C° 0 mm 0 m/S 755 mmHg 51%
    05:00 +18°C° 0 mm 0 m/S 755 mmHg 51%
    06:00 +20°C° 0 mm 0 m/S 755 mmHg 48%
    07:00 +23°C° 0 mm 1 m/S 755 mmHg 45%
    08:00 +24°C° 0 mm 1 m/S 755 mmHg 42%
    09:00 +26°C° 0 mm 1 m/S 755 mmHg 38%
    10:00 +28°C° 0 mm 2 m/S 755 mmHg 34%
    11:00 +29°C° 0 mm 2 m/S 755 mmHg 31%
    12:00 +30°C° 0 mm 3 m/S 754 mmHg 29%
    13:00 +30°C° 0 mm 3 m/S 754 mmHg 27%
    14:00 +31°C° 0 mm 3 m/S 753 mmHg 25%
    15:00 +30°C° 0 mm 3 m/S 753 mmHg 27%
    16:00 +29°C° 0 mm 3 m/S 753 mmHg 28%
    17:00 +29°C° 0 mm 2 m/S 753 mmHg 30%
    18:00 +27°C° 0 mm 3 m/S 753 mmHg 33%
    19:00 +25°C° 0 mm 3 m/S 753 mmHg 36%
    20:00 +24°C° 0 mm 3 m/S 753 mmHg 40%
    21:00 +22°C° 0 mm 3 m/S 752 mmHg 43%
    22:00 +21°C° 0 mm 3 m/S 752 mmHg 46%
    23:00 +21°C° 0 mm 4 m/S 752 mmHg 49%

    23 September, Sonntag

    Zeit Temperatur Niederschläge Wind Luftdruck Luftfeuchtigkeit
    00:00 +20°C° 0 mm 4 m/S 752 mmHg 51%
    01:00 +20°C° 0 mm 4 m/S 752 mmHg 52%
    02:00 +20°C° 0 mm 3 m/S 752 mmHg 54%
    03:00 +19°C° 0 mm 4 m/S 752 mmHg 58%
    04:00 +17°C° 0 mm 5 m/S 752 mmHg 61%
    05:00 +16°C° 0 mm 5 m/S 752 mmHg 65%
    06:00 +16°C° 0.1 mm 6 m/S 753 mmHg 67%
    07:00 +15°C° 0.1 mm 6 m/S 753 mmHg 69%
    08:00 +14°C° 0.1 mm 7 m/S 754 mmHg 71%
    09:00 +15°C° 0.1 mm 7 m/S 754 mmHg 66%
    10:00 +15°C° 0.1 mm 6 m/S 754 mmHg 61%
    11:00 +16°C° 0.1 mm 6 m/S 755 mmHg 56%
    12:00 +17°C° 0 mm 6 m/S 755 mmHg 50%
    13:00 +19°C° 0 mm 6 m/S 755 mmHg 44%
    14:00 +20°C° 0 mm 6 m/S 755 mmHg 38%
    15:00 +20°C° 0 mm 5 m/S 755 mmHg 37%
    16:00 +19°C° 0 mm 4 m/S 755 mmHg 37%
    17:00 +19°C° 0 mm 4 m/S 755 mmHg 37%
    18:00 +18°C° 0 mm 3 m/S 755 mmHg 40%
    19:00 +17°C° 0 mm 2 m/S 755 mmHg 43%
    20:00 +15°C° 0 mm 1 m/S 756 mmHg 46%
    21:00 +15°C° 0 mm 1 m/S 756 mmHg 47%
    22:00 +15°C° 0 mm 1 m/S 756 mmHg 48%
    23:00 +14°C° 0 mm 1 m/S 756 mmHg 49%

    24 September, Montag

    Zeit Temperatur Niederschläge Wind Luftdruck Luftfeuchtigkeit
    00:00 +14°C° 0 mm 1 m/S 755 mmHg 49%
    01:00 +14°C° 0 mm 1 m/S 755 mmHg 50%
    02:00 +14°C° 0 mm 2 m/S 754 mmHg 51%
    03:00 +13°C° 0 mm 2 m/S 754 mmHg 51%
    04:00 +12°C° 0 mm 3 m/S 754 mmHg 52%
    05:00 +12°C° 0 mm 3 m/S 753 mmHg 52%
    06:00 +14°C° 0 mm 5 m/S 753 mmHg 50%
    07:00 +15°C° 0 mm 6 m/S 752 mmHg 48%
    08:00 +17°C° 0 mm 8 m/S 751 mmHg 46%
    09:00 +18°C° 0 mm 9 m/S 751 mmHg 46%
    10:00 +21°C° 0 mm 9 m/S 750 mmHg 45%
    11:00 +23°C° 0 mm 10 m/S 750 mmHg 45%
    12:00 +23°C° 0 mm 11 m/S 749 mmHg 45%
    13:00 +23°C° 0 mm 11 m/S 748 mmHg 44%
    14:00 +24°C° 0 mm 11 m/S 747 mmHg 44%
    15:00 +24°C° 0 mm 11 m/S 746 mmHg 48%
    16:00 +23°C° 0 mm 11 m/S 745 mmHg 53%
    17:00 +23°C° 0 mm 10 m/S 744 mmHg 57%
    18:00 +22°C° 0.3 mm 10 m/S 744 mmHg 63%
    19:00 +21°C° 0.3 mm 10 m/S 745 mmHg 69%
    20:00 +21°C° 0.3 mm 10 m/S 745 mmHg 75%
    21:00 +18°C° 0.2 mm 9 m/S 745 mmHg 70%
    22:00 +17°C° 0.2 mm 7 m/S 746 mmHg 66%
    23:00 +16°C° 0.2 mm 5 m/S 746 mmHg 62%

    25 September, Dienstag

    Zeit Temperatur Niederschläge Wind Luftdruck Luftfeuchtigkeit
    00:00 +15°C° 0 mm 5 m/S 747 mmHg 63%
    01:00 +14°C° 0 mm 5 m/S 747 mmHg 63%
    02:00 +13°C° 0 mm 4 m/S 747 mmHg 64%
    03:00 +13°C° 0 mm 5 m/S 747 mmHg 63%
    04:00 +12°C° 0 mm 5 m/S 748 mmHg 63%
    05:00 +12°C° 0 mm 5 m/S 748 mmHg 63%
    06:00 +11°C° 0 mm 7 m/S 748 mmHg 59%
    07:00 +12°C° 0 mm 8 m/S 748 mmHg 55%
    08:00 +12°C° 0 mm 9 m/S 749 mmHg 52%
    09:00 +13°C° 0 mm 9 m/S 749 mmHg 49%
    10:00 +15°C° 0 mm 9 m/S 749 mmHg 46%
    11:00 +16°C° 0 mm 9 m/S 750 mmHg 43%
    12:00 +16°C° 0 mm 9 m/S 750 mmHg 42%
    13:00 +16°C° 0 mm 8 m/S 750 mmHg 41%
    14:00 +16°C° 0 mm 8 m/S 751 mmHg 40%
    15:00 +16°C° 0 mm 8 m/S 751 mmHg 41%
    16:00 +15°C° 0 mm 7 m/S 751 mmHg 42%
    17:00 +14°C° 0 mm 7 m/S 752 mmHg 43%
    18:00 +13°C° 0 mm 6 m/S 752 mmHg 47%
    19:00 +12°C° 0 mm 5 m/S 753 mmHg 50%
    20:00 +10°C° 0 mm 3 m/S 753 mmHg 54%
    21:00 +10°C° 0 mm 3 m/S 753 mmHg 56%
    22:00 +9°C° 0 mm 3 m/S 754 mmHg 58%
    23:00 +9°C° 0 mm 2 m/S 754 mmHg 59%
    Mehr zeigen